Regional Weather Roundup
Issued by NWS

Home | Current Version | Previous Version | Graphics & Text | Print | Product List | Glossary Off
Versions: 1 2 3 4 5 6 7 8 9 10 11 12 13 14 15 16 17 18 19 20 21 22 23 24 25 26 27 28 29 30 31 32 33 34 35 36 37 38 39 40 41 42 43 44 45 46 47 48 49 50

000
ASUS43 KMKX 120759
RWRWI

WISCONSIN REGIONAL WEATHER ROUNDUP
NATIONAL WEATHER SERVICE MILWAUKEE/SULLIVAN WI
200 AM CST FRI FEB 12 2016

NOTE: "FAIR" INDICATES FEW OR NO CLOUDS BELOW 12,000 FEET WITH NO
SIGNIFICANT WEATHER AND/OR OBSTRUCTIONS TO VISIBILITY.

WIZ001-002-006>008-014>016-023>028-120900-
NORTHWEST WISCONSIN

CITY           SKY/WX    TMP DP  RH WIND       PRES   REMARKS
SUPERIOR ARPT  MOCLDY    10   1  67 NW14      30.18R WCI  -5
ASHLAND        CLOUDY    12   2  64 W8        30.11F WCI   0
HAYWARD        CLOUDY    12   1  61 W6G17     30.10F WCI   3
SIREN          CLOUDY    14   7  74 NW10      30.16S WCI   1
CUMBERLAND     CLOUDY    12   9  85 W8        30.12F WCI   1
RICE LAKE      CLOUDY    13   8  80 W7        30.15F WCI   3
CHETEK         CLOUDY    13   8  79 W5        30.14F WCI   5
LADYSMITH      CLOUDY    13   5  71 W8        30.11F WCI   1
EAU CLAIRE     CLOUDY    14   6  70 W8        30.15F WCI   3
MENOMONIE      CLOUDY    15   8  72 W8        30.16F WCI   4
NEW RICHMOND   CLOUDY    13   8  81 W7        30.17S WCI   3
OSCEOLA        CLOUDY    15  10  81 W8        30.21S WCI   4
$$

WIZ003>005-009-010-017-018-120900-
NORTH CENTRAL WISCONSIN

CITY           SKY/WX    TMP DP  RH WIND       PRES   REMARKS
MANITOWISH WTR CLOUDY     8   0  69 W8        30.01S WCI  -4
ARBOR VITAE    CLOUDY    11   2  65 NW7       30.01F WCI   1
WOODRUFF       CLOUDY    11   2  65 NW7       30.01F WCI   1
RHINELANDER    CLOUDY    10  -1  61 W13       30.01F WCI  -5
EAGLE RIVER    CLOUDY     9  -2  59 W12G17    29.99F WCI  -5
LAND O LAKES   CLOUDY    10   1  68 W7        29.99F WCI  -2
PHILLIPS       CLOUDY    10   1  67 W5        30.04F WCI   1
TOMAHAWK       CLOUDY    10   0  65 W7        30.04F WCI  -2
MEDFORD        CLOUDY    11   2  68 W9        30.06F WCI  -2
MERRILL        CLOUDY    11   0  61 W9        30.07F WCI  -1
$$

WIZ029-030-035-036-043>047-120900-
CENTRAL WISCONSIN

CITY           SKY/WX    TMP DP  RH WIND       PRES   REMARKS
WAUSAU         CLOUDY    13   2  61 W13       30.06F WCI  -2
MOSINEE        CLOUDY    12   3  67 W9G17     30.09F WCI   0
MARSHFIELD     CLOUDY    13   2  61 W8        30.08F WCI   2
STEVENS POINT  CLOUDY    12   0  59 W9        30.10F WCI   0
WAUPACA        CLOUDY    17   2  51 W8        30.12F WCI   6
WAUTOMA        NOT AVBL
WISC RAPIDS    CLOUDY    13   0  56 W8        30.13F WCI   2
CAMP DOUGLAS   NOT AVBL
$$

WIZ011>013-019>022-031-037>040-048>050-120900-
NORTHEAST WISCONSIN

CITY           SKY/WX    TMP DP  RH WIND       PRES   REMARKS
ANTIGO         CLOUDY    10   0  63 W9        30.03F WCI  -3
SHAWANO        CLOUDY    17   2  52 W6        30.09F WCI   8
OCONTO         CLOUDY    15   0  53 W12       30.09F WCI   1
STURGEON BAY   CLOUDY    14   0  52 W9        30.08F WCI   2
GREEN BAY      CLOUDY    15   1  53 W12       30.10F WCI   2
MANITOWOC      NOT AVBL
APPLETON       CLOUDY    16   0  48 W12       30.09F WCI   3
CLINTONVILLE   CLOUDY    16   1  53 W9        30.10F WCI   4
OSHKOSH        CLOUDY    15   2  56 W7        30.11F WCI   5
$$

WIZ032>034-041-042-053>061-120900-
SOUTHWEST WISCONSIN

CITY           SKY/WX    TMP DP  RH WIND       PRES   REMARKS
LA CROSSE      LGT SNOW  14   7  73 W6        30.20S WCI   5
SPARTA         FLURRIES  13   6  73 W5        30.18F WCI   5
VIROQUA        CLOUDY    11   7  81 W8        30.14F WCI   0
BOSCOBEL       CLOUDY    15   5  64 SW6       30.21F WCI   6
PRAIRIE DU CHI MIX PCPN  15   4  62 NW5       30.22F WCI   7
PLATTEVILLE    CLOUDY    14   6  70 W5        30.17F WCI   6
$$

WIZ056-057-062-063-064-067-068-120900-
SOUTH CENTRAL WISCONSIN

CITY           SKY/WX    TMP DP  RH WIND       PRES   REMARKS
REEDSBURG      CLOUDY    14   2  59 W7        30.15F WCI   3
BARABOO/DELLS  CLOUDY    14   0  55 W8        30.14F WCI   2
LONE ROCK      NOT AVBL
MINERAL POINT  FLURRIES  16   5  62 W5        30.15F WCI   9
MADISON        CLOUDY    15   0  51 VRB3      30.15F
MIDDLETON      CLOUDY    17   4  58 W9        30.16F WCI   5
WATERTOWN      CLOUDY    17   4  57 W7        30.14F WCI   7
MONROE         CLOUDY    16   9  73 W7        30.15F WCI   6
JANESVILLE     CLOUDY    19   7  58 SW5       30.17F WCI  13
$$

WIZ051-052-058>065-066-070>072-120900-
SOUTHEAST WISCONSIN

CITY           SKY/WX    TMP DP  RH WIND       PRES   REMARKS
MILWAUKEE      CLOUDY    18   2  49 W13       30.15F WCI   5
WAUKESHA       CLOUDY    16   3  57 W10       30.15F WCI   3
MILWAUKEE/TIMM CLOUDY    18   3  53 W8        30.15F WCI   7
RACINE         CLOUDY    18   4  54 W14       30.16F WCI   4
BURLINGTON     CLOUDY    16   4  61 W7        30.16F WCI   6
KENOSHA        CLOUDY    18   8  65 W9        30.16F WCI   7
FOND DU LAC    CLOUDY    16   1  51 W8        30.12F WCI   5
SHEBOYGAN      CLOUDY    16   1  51 W15       30.11F WCI   1
WEST BEND      CLOUDY    16   1  53 CALM      30.12F
JUNEAU         CLOUDY    15   4  62 SW10      30.14F WCI   2
$$

LSZ147-162-120900-
LAKE SUPERIOR

STATION/POSITION TIME  TEMP    WIND        PRES    WAVE
                       AIR SEA DIR/SP/G            HT/PER
                 (UTC) (F)     (DEG/KT/KT) (MB)    (FT/S)
DEVILS ISLAND    0700   14     300/ 21/ 25 1020.6F
PORT WING        0700   14     300/ 14/ 20 1020.7S
SAXON HARBOR     0700   14                 1019.3
$$

LMZ867-665-643>646-120900-
LAKE MICHIGAN

STATION/POSITION TIME  TEMP    WIND        PRES    WAVE
                       AIR SEA DIR/SP/G            HT/PER
                 (UTC) (F)     (DEG/KT/KT) (MB)    (FT/S)
CHAMBERS ISLAND  0700   16     230/  8/ 15 1018.3F
KEWAUNEE LAKESHO 0700   16     270/ 11/ 14 1018.6F
SHEBOYGAN LAKESH 0700   17     260/ 14/ 16 1021.7F
PORT WASHINGTON  0700   17     270/  7/ 14 1022.0F
MILWAUKEE LAKESH 0710   19     270/ 11/ 14   N/A
KENOSHA   LAKESH 0700   19     260/  8/ 12 1022.0F
$$

TC  - TEMPERATURE IN CELSIUS
VSB - VISIBILITY IN STATUTE MILES
WCI - WIND CHILL INDEX
HX  - HEAT INDEX




USA.gov is the U.S. government's official web portal to all federal, state and local government web resources and services.